Starlink 34941

operational
NORAD ID: 65210 Int'l Des: 2025-176 Owner: SPXS Country: US Constellation: starlink
LEOCIRCULAR

关于 Starlink 34941

正在加载描述...

实时位置

正在加载3D地球...

即将过境

高度历史

Altitude vs Time

uPlot chart will show altitude changes over time

两行轨道根数

1 65210U 25176N 25340.94603072 .00038779 00000-0 13145-2 0 9990
2 65210 53.1582 223.3249 0001179 85.6702 274.4433 15.30202285 18926
Epoch: Dec 6, 2025 • Age: 14 hours

当前状态

高度 489.9 km
速度 7.62 km/s
星下点 -42.36°S, 87.14°W
发射日期 Aug 14, 2025
运行时间 0.3 years
类型 internet

技术详情

分类 Payload
质量 575.00 kg
干质量 530.00 kg
总质量 575.00 kg
长度 0.30 m
直径 4.10 m
跨度 29.00 m
形状 Box + pan
制造商 SPXS
平台类型 Starlink V2MO
阶段状态 In Orbit
所有者/国家 SPXS/US

大型星座

Loading constellations...